sat.trackr.live / text

‹ back to catalog

IRIDIUM 108

NORAD 41924 · 2017-003H

PAYLOAD ACTIVE UNKNOWN

§ Identity

Operator
Country
US
Launch date
2017-01-14
Launch site
AFWTR
Launch vehicle
Mass (kg)
RCS (m²)
2.41

Purposes: comms

External: N2YO · Heavens-Above · Gunter

§ Orbital elements

Epoch: 2026-09-19T20:24:34.497792Z

Period
100.40 min
Inclination
86.4010°
Eccentricity
0.0002161
Mean motion
14.34217790 rev/d
Perigee alt
776.1 km
Apogee alt
779.2 km
Semi-major
7,155.8 km
B*
1.5107e-5
RAAN
17.1692°
Arg perigee
96.3269°
Mean anomaly
263.8172°
Rev number
50,867

§ Raw data

IRIDIUM 1081 41924U 17003H   26262.85039928  .00000062  00000+0  15107-4 0  99982 41924  86.4010  17.1692 0002161  96.3269 263.8172 14.34217790508675

JSON: /api/v1/satellites/41924 · /tle

For live sub-satellite position, see the globe view (requires WebGL).

§ Visibility from observer

Set your observer location to see the next 7 days of passes ≥ 10°. The values pass through the URL so the page stays shareable.

No JS? Fill the form by hand. The geolocation button needs JavaScript.